Meishomaru — JD3044 — position and weather

sailwx.info

Track history (hours):
 
Tides and Currents Weather Stations Pressure Air Temp Water Temp Dewpoint Dewpoint Depression Visibility Wind Speed Wind Dir Waves Ship Positions

Meishomaru

Last reported at 2014-Nov-18 05:15 UTC. Time now 2014-Nov-24 13:56 UTC.
Position N 35°15' E 139°46'.

Length 68 m; draft 4 m.

Type: Tanker. MMSI: 431001216.

Date/timePositionNaut miles runAvg speedWind from/ knotsBaromVisibWave heightAir tempDewpointWater temp
2014-Nov-18 05:15N 35°15' E 139°46'811.6
2014-Nov-18 04:33N 35°23' E 139°42'12 1.7
2014-Nov-17 21:31N 35°28' E 139°56'0 0.0
2014-Nov-17 19:31N 35°28' E 139°56'0 0.0
2014-Nov-17 18:31N 35°28' E 139°56'0 0.0
2014-Nov-17 17:31N 35°28' E 139°56'0 0.0
2014-Nov-17 16:32N 35°28' E 139°56'9 9.1
2014-Nov-17 15:33N 35°24' E 139°46'1111.2
2014-Nov-17 14:33N 35°13' E 139°47'2 0.1
2014-Nov-16 09:15N 35°15' E 139°46'812.1
2014-Nov-16 08:33N 35°22' E 139°42'9 9.0
2014-Nov-16 07:33N 35°31' E 139°46'0 0.0
2014-Nov-16 04:31N 35°31' E 139°46'3 1.3
2014-Nov-16 02:28N 35°29' E 139°49'0 0.0
2014-Nov-16 01:31N 35°29' E 139°49'0 0.0
2014-Nov-16 00:31N 35°29' E 139°49'0 0.0
2014-Nov-15 23:28N 35°29' E 139°49'0 0.0
2014-Nov-15 22:31N 35°29' E 139°49'0 0.0
2014-Nov-15 21:31N 35°29' E 139°49'0 0.1
2014-Nov-15 20:31N 35°29' E 139°49'0 0.0
2014-Nov-15 19:31N 35°29' E 139°49'0 0.0
2014-Nov-15 18:31N 35°29' E 139°49'7 7.1
2014-Nov-15 17:34N 35°23' E 139°45'1110.8
2014-Nov-15 16:32N 35°11' E 139°47'  
2014-Nov-08 12:20N 34°35' E 134°52'1113.3
2014-Nov-08 11:32N 34°36' E 135°04'1212.4
2014-Nov-08 10:33N 34°34' E 135°19'  
Track history (hours):
 
Tides and Currents Weather Stations Pressure Air Temp Water Temp Dewpoint Dewpoint Depression Visibility Wind Speed Wind Dir Waves Ship Positions

Meishomaru

Last reported at 2014-Nov-18 05:15 UTC. Time now 2014-Nov-24 13:56 UTC.
Position N 35°15' E 139°46'.

Length 68 m; draft 4 m.

Type: Tanker. MMSI: 431001216.

Date/timePositionNaut miles runAvg speedWind from/ knotsBaromVisibWave heightAir tempDewpointWater temp
2014-Nov-18 05:15N 35°15' E 139°46'811.6
2014-Nov-18 04:33N 35°23' E 139°42'12 1.7
2014-Nov-17 21:31N 35°28' E 139°56'0 0.0
2014-Nov-17 19:31N 35°28' E 139°56'0 0.0
2014-Nov-17 18:31N 35°28' E 139°56'0 0.0
2014-Nov-17 17:31N 35°28' E 139°56'0 0.0
2014-Nov-17 16:32N 35°28' E 139°56'9 9.1
2014-Nov-17 15:33N 35°24' E 139°46'1111.2
2014-Nov-17 14:33N 35°13' E 139°47'2 0.1
2014-Nov-16 09:15N 35°15' E 139°46'812.1
2014-Nov-16 08:33N 35°22' E 139°42'9 9.0
2014-Nov-16 07:33N 35°31' E 139°46'0 0.0
2014-Nov-16 04:31N 35°31' E 139°46'3 1.3
2014-Nov-16 02:28N 35°29' E 139°49'0 0.0
2014-Nov-16 01:31N 35°29' E 139°49'0 0.0
2014-Nov-16 00:31N 35°29' E 139°49'0 0.0
2014-Nov-15 23:28N 35°29' E 139°49'0 0.0
2014-Nov-15 22:31N 35°29' E 139°49'0 0.0
2014-Nov-15 21:31N 35°29' E 139°49'0 0.1
2014-Nov-15 20:31N 35°29' E 139°49'0 0.0
2014-Nov-15 19:31N 35°29' E 139°49'0 0.0
2014-Nov-15 18:31N 35°29' E 139°49'7 7.1
2014-Nov-15 17:34N 35°23' E 139°45'1110.8
2014-Nov-15 16:32N 35°11' E 139°47'  
2014-Nov-08 12:20N 34°35' E 134°52'1113.3
2014-Nov-08 11:32N 34°36' E 135°04'1212.4
2014-Nov-08 10:33N 34°34' E 135°19'  

Dump ship's entire track history